Вернуться в каталог

SL-14 DEB

АктивенPO
NORAD 45267·DEBRIS·🇷🇺 Russia

Запущен Aug 15, 1991 с Plesetsk Cosmodrome

Loading…

Ближайшие Пролёты (ближайшие 24 часа)

TLE

СвежийSource: Space-Track

Эпоха: Sep 14, 2026, 11:38 UTC

1 45267U 91056D   26257.48516349 -.00000399  00000-0 -11149-2 0  9998
2 45267  82.5624  87.6413 0016134  47.5260 312.7222 13.14143358315956

Отслеживайте SL-14 DEB в реальном времени с AllMySat

Download on the App Store